STARLINK-32957, 63124

Orbit data source: Space-Track

STARLINK-32957, 63124 is a payload satellite owned by SpaceX/Seattle (US) in LEO that was launched on Thu, 27 Feb 2025 UTC via an FALCON 9 launch vehicle from the Air Force Eastern Test Range (AFETR). Payload-class satellites include a variety of spacecraft equipped with specific instruments for various scientific and technological missions. These include communications satellites like Starlink; space stations such as the ISS; scientific satellites like the Hubble; Earth observation satellites from companies like Planet Labs, Umbra, and HawkEye 360; GPS; miniature CubeSats for education and research; and military/defense satellites.

Loading next visibility...
Identifier
63124, 2025-039W
Orbit
LEO
Last TLE update
11 hours ago
Origin
Manufacturer
SpaceX/Seattle
Mission
Operational Commercial Communications
Bus & Motor
STARLINK V2M, Unknown motor
Mass
730 kg wet, ~700 kg dry
Launch date (UTC)
2025-02-27 (2 months ago)
Launch vehicle
FALCON 9
Launch site
Air Force Eastern Test Range (AFETR)
Object type
Payload
Rocket body
Debris
Shape & HBR
Box + 2 Pan, 29 m
Radar Cross Section
33.884 m², Large (>1 m²)

Expand to show TLE details & history

TLE from 11 hours ago
0 STARLINK-32957
1 63124U 25039W   25128.91497088  .00000987  00000-0  45393-4 0  9991
2 63124  43.0032 294.1452 0001930 272.2715  87.7916 15.27578778 12150
Epoch: 2025-05-08T21:57Z
Definitive object data (Epoch: 2025-05-08T21:57:33.484Z)
Latitude
0.00002°
Longitude
97.77708°
Altitude
482.778 km
Speed
7.626 km/s
True Right ascension
19h 36m 34s
True Declination
0° 00' 00"
Sunlit
Object was in daylight at TLE epoch
Visualization TLE readout
Latitude
11.63501°
Longitude
107.85704°
Altitude
482.334 km
Speed
7.627 km/s
Apparent Right ascension
23h 23m 40s
Apparent Declination
-28° 50' 57"
Sunlit
Object is in daylight
Visualization observer readout
Local Sidereal Time
17:10:22
Azimuth
111.104° ESE
Elevation
-20.399°
Doppler factor
1
Orbital elements
Apogee altitude
486.322 km
Perigee altitude
483.673 km
Semi-major axis
6,863.134 km
Eccentricity
0.000193
Inclination
43.0032°
RAAN
294.1452°
Arg. of periapsis
272.2715°
True anomaly
87.8137°
Mean anomaly
87.7916°
Eccentric anomaly
87.80265°
Mean motion
3.81733 °/min
BSTAR
0.000045393
Orbital period
94.31 mins
Loading maneuver chart data...
Loading SW <> Apogee altitude chart data...
Loading historical data...
Loading historical data...
Loading historical data...
Loading historical data...
Loading historical data...
Loading historical data...
Loading historical data...

STARLINK-32957 Visibility forecast

Observer location: undefined°, undefined°

Span
Click to sort rows by Start time (UTC) header in descending order
Start Az.
Max El. time (UTC)
Max El. Az.
Max El.
End time (UTC)
End Az.
5 mins2025-05-09 13:51:07.347Z193.314° SSW2025-05-09 13:53:07.347Z150.658° SSE23.353°2025-05-09 13:56:07.347Z92.133° ESE
5 mins2025-05-09 15:30:07.347Z256.425° W2025-05-09 15:32:07.347Z35.284° NE44.491°2025-05-09 15:35:07.347Z71.003° E
5 mins2025-05-09 17:09:07.347Z293.63° NW2025-05-09 17:11:07.347Z0.946° NNE38.006°2025-05-09 17:14:07.347Z75.193° E
5 mins2025-05-09 18:48:07.347Z288.756° WNW2025-05-09 18:50:07.347Z300.123° NW44.768°2025-05-09 18:53:07.347Z108.234° ESE
4 mins2025-05-09 20:27:07.347Z253.258° W2025-05-09 20:29:07.347Z208.832° SW21.485°2025-05-09 20:31:07.347Z169.111° S
|